Location: Davidschlag
(48.4333°N, 14.2833°E)
Time: 20:14:00
(UTC+00:00)

Okean-O - Pass Details

Date: 27 February 2020
Orbit: 638 x 641 km, 98.2° (Epoch: 07 April)

Event Time Altitude Azimuth Distance (km) Brightness Sun altitude
Rises 17:25:07 0° 181° (S) 2,935 6.1 -7.8°
Reaches altitude 10° 17:27:24 10° 188° (S) 2,030 5.4 -8.2°
Maximum altitude 17:31:38 45° 261° (W) 881 4.0 -8.9°
Drops below altitude 10° 17:35:55 10° 334° (NNW) 2,046 5.5 -9.6°
Sets 17:38:14 0° 341° (NNW) 2,960 6.3 -10.0°
